| time (UTC) | temp F | wind direction | speed MPH | gust MPH | rain 1hr in | rain 24hr in | rain mn in | humidity % | barometer mb |
| 20260509053514 | 70 | 237 | 0.0 | 2.0 | 0.00 | 0.00 | 0.00 | 88 | 1010.7 |
| 20260509053010 | 70 | 113 | 0.0 | 2.0 | 0.00 | 0.00 | 0.00 | 88 | 1010.4 |
| 20260509052508 | 70 | 205 | 0.0 | 2.0 | 0.00 | 0.00 | 0.00 | 88 | 1010.8 |
| 20260509052006 | 71 | 224 | 0.0 | 2.0 | 0.00 | 0.00 | 0.00 | 88 | 1011.1 |
| 20260509051504 | 71 | 278 | 1.0 | 3.0 | 0.00 | 0.00 | 0.00 | 87 | 1011.6 |
| 20260509051000 | 71 | 12 | 0.0 | 3.0 | 0.00 | 0.00 | 0.00 | 87 | 1011.6 |
| 20260509050457 | 71 | 345 | 2.0 | 3.0 | 0.00 | 0.00 | 0.00 | 87 | 1011.0 |
| 20260509045953 | 71 | 265 | 2.0 | 2.0 | 0.00 | 0.00 | 0.00 | 86 | 1010.3 |
| 20260509045451 | 71 | 269 | 0.0 | 2.0 | 0.00 | 0.00 | 0.00 | 86 | 1009.8 |
| 20260509044948 | 71 | 220 | 2.0 | 4.0 | 0.00 | 0.00 | 0.00 | 85 | 1009.7 |
| 20260509044445 | 71 | 241 | 1.0 | 4.0 | 0.00 | 0.00 | 0.00 | 85 | 1009.7 |
| 20260509043942 | 71 | 229 | 0.0 | 3.0 | 0.00 | 0.00 | 0.00 | 85 | 1010.0 |
| 20260509043438 | 71 | 180 | 1.0 | 3.0 | 0.00 | 0.00 | 0.00 | 84 | 1009.5 |
| 20260509042933 | 71 | 250 | 2.0 | 4.0 | 0.00 | 0.00 | 0.00 | 84 | 1009.5 |
| 20260509042431 | 71 | 174 | 2.0 | 5.0 | 0.00 | 0.00 | 0.00 | 84 | 1008.9 |
| 20260509041927 | 72 | 207 | 3.0 | 5.0 | 0.00 | 0.00 | 0.00 | 83 | 1009.1 |
| 20260509041424 | 72 | 233 | 2.0 | 6.0 | 0.00 | 0.00 | 0.00 | 82 | 1009.4 |
| 20260509040922 | 72 | 183 | 2.0 | 7.0 | 0.00 | 0.00 | 0.00 | 82 | 1009.4 |
| 20260509040420 | 72 | 193 | 1.0 | 5.0 | 0.00 | 0.00 | 0.00 | 81 | 1010.0 |
| 20260509035916 | 72 | 224 | 1.0 | 3.0 | 0.00 | 0.00 | 0.00 | 82 | 1010.2 |
| 20260509035413 | 72 | 315 | 0.0 | 4.0 | 0.00 | 0.00 | 0.00 | 82 | 1010.8 |
| 20260509034910 | 72 | 352 | 0.0 | 0.0 | 0.00 | 0.00 | 0.00 | 82 | 1010.5 |
| 20260509034408 | 72 | 230 | 0.0 | 2.0 | 0.00 | 0.00 | 0.00 | 82 | 1010.7 |
| 20260509033905 | 72 | 315 | 0.0 | 0.0 | 0.00 | 0.00 | 0.00 | 82 | 1010.9 |
| 20260509033402 | 72 | 309 | 0.0 | 1.0 | 0.00 | 0.00 | 0.00 | 82 | 1010.5 |
| 20260509032858 | 72 | 283 | 0.0 | 1.0 | 0.00 | 0.00 | 0.00 | 82 | 1010.5 |
| 20260509032355 | 72 | 242 | 0.0 | 1.0 | 0.00 | 0.00 | 0.00 | 82 | 1010.3 |
| 20260509031853 | 72 | 255 | 0.0 | 1.0 | 0.00 | 0.00 | 0.00 | 82 | 1010.0 |
| 20260509031350 | 72 | 221 | 1.0 | 2.0 | 0.00 | 0.00 | 0.00 | 82 | 1010.0 |
| 20260509030848 | 72 | 248 | 0.0 | 2.0 | 0.00 | 0.00 | 0.00 | 82 | 1010.0 |
| 20260509030346 | 72 | 239 | 1.0 | 2.0 | 0.00 | 0.00 | 0.00 | 82 | 1010.2 |
| 20260509025843 | 72 | 234 | 1.0 | 2.0 | 0.00 | 0.00 | 0.00 | 82 | 1010.0 |
| 20260509025338 | 72 | 205 | 2.0 | 4.0 | 0.00 | 0.00 | 0.00 | 82 | 1009.7 |
| 20260509024833 | 72 | 178 | 3.0 | 4.0 | 0.00 | 0.00 | 0.00 | 82 | 1009.7 |
| 20260509024330 | 72 | 217 | 0.0 | 3.0 | 0.00 | 0.00 | 0.00 | 82 | 1009.6 |
| 20260509023827 | 72 | 170 | 1.0 | 3.0 | 0.00 | 0.00 | 0.00 | 82 | 1009.6 |
| 20260509023324 | 72 | 193 | 0.0 | 3.0 | 0.00 | 0.00 | 0.00 | 82 | 1009.4 |
| 20260509022821 | 72 | 168 | 0.0 | 2.0 | 0.00 | 0.00 | 0.00 | 82 | 1009.1 |
| 20260509022318 | 72 | 138 | 2.0 | 5.0 | 0.00 | 0.00 | 0.00 | 82 | 1008.9 |
| 20260509021815 | 72 | 194 | 1.0 | 3.0 | 0.00 | 0.00 | 0.00 | 81 | 1008.9 |
| 20260509021312 | 72 | 211 | 2.0 | 4.0 | 0.00 | 0.00 | 0.00 | 81 | 1009.0 |
| 20260509020809 | 72 | 254 | 0.0 | 3.0 | 0.00 | 0.00 | 0.00 | 81 | 1008.8 |
| 20260509020308 | 72 | 198 | 0.0 | 4.0 | 0.00 | 0.00 | 0.00 | 81 | 1008.8 |
| 20260509015805 | 72 | 228 | 1.0 | 3.0 | 0.00 | 0.00 | 0.00 | 81 | 1008.9 |
| 20260509015306 | 72 | 87 | 1.0 | 3.0 | 0.00 | 0.00 | 0.00 | 80 | 1008.8 |
| 20260509014759 | 72 | 263 | 0.0 | 3.0 | 0.00 | 0.00 | 0.00 | 80 | 1008.9 |
| 20260509014256 | 72 | 204 | 1.0 | 3.0 | 0.00 | 0.00 | 0.00 | 80 | 1008.7 |
| 20260509013753 | 72 | 220 | 1.0 | 2.0 | 0.00 | 0.00 | 0.00 | 79 | 1008.7 |
| 20260509013248 | 73 | 217 | 1.0 | 3.0 | 0.00 | 0.00 | 0.00 | 79 | 1008.6 |
| 20260509012745 | 73 | 240 | 1.0 | 3.0 | 0.00 | 0.00 | 0.00 | 79 | 1008.7 |
| 20260509012242 | 73 | 224 | 1.0 | 2.0 | 0.00 | 0.00 | 0.00 | 79 | 1008.7 |
| 20260509011739 | 73 | 179 | 1.0 | 3.0 | 0.00 | 0.00 | 0.00 | 78 | 1008.6 |
| 20260509011237 | 73 | 191 | 1.0 | 3.0 | 0.00 | 0.00 | 0.00 | 78 | 1008.5 |
| 20260509010734 | 73 | 237 | 0.0 | 3.0 | 0.00 | 0.00 | 0.00 | 78 | 1008.6 |
| 20260509010231 | 73 | 228 | 1.0 | 4.0 | 0.00 | 0.00 | 0.00 | 77 | 1008.5 |
| 20260509005728 | 73 | 208 | 1.0 | 4.0 | 0.00 | 0.00 | 0.00 | 77 | 1008.5 |
| 20260509005225 | 73 | 179 | 2.0 | 6.0 | 0.00 | 0.00 | 0.00 | 77 | 1008.2 |
| 20260509004719 | 73 | 182 | 4.0 | 5.0 | 0.00 | 0.00 | 0.00 | 76 | 1008.4 |
| 20260509004217 | 73 | 154 | 3.0 | 5.0 | 0.00 | 0.00 | 0.00 | 76 | 1008.2 |
| 20260509003715 | 74 | 237 | 1.0 | 5.0 | 0.00 | 0.00 | 0.00 | 75 | 1007.9 |
| 20260509003213 | 74 | 316 | 2.0 | 4.0 | 0.00 | 0.00 | 0.00 | 75 | 1008.0 |
| 20260509002710 | 74 | 242 | 2.0 | 5.0 | 0.00 | 0.00 | 0.00 | 75 | 1008.1 |
| 20260509002208 | 74 | 230 | 3.0 | 5.0 | 0.00 | 0.00 | 0.00 | 74 | 1008.3 |
| 20260509001705 | 75 | 223 | 2.0 | 6.0 | 0.00 | 0.00 | 0.00 | 73 | 1008.0 |
| 20260509001200 | 75 | 257 | 1.0 | 7.0 | 0.00 | 0.00 | 0.00 | 72 | 1008.2 |
| 20260509000659 | 75 | 183 | 2.0 | 7.0 | 0.00 | 0.00 | 0.00 | 72 | 1008.3 |
| 20260509000156 | 75 | 208 | 3.0 | 4.0 | 0.00 | 0.00 | 0.00 | 72 | 1008.4 |
| 20260508235653 | 75 | 274 | 2.0 | 6.0 | 0.00 | 0.00 | 0.00 | 72 | 1008.4 |
| 20260508235149 | 75 | 217 | 3.0 | 9.0 | 0.00 | 0.00 | 0.00 | 71 | 1008.5 |
| 20260508234646 | 76 | 276 | 2.0 | 7.0 | 0.00 | 0.00 | 0.00 | 70 | 1008.3 |
| 20260508234142 | 78 | 197 | 3.0 | 5.0 | 0.00 | 0.00 | 0.00 | 68 | 1008.3 |
| 20260508233637 | 78 | 163 | 4.0 | 7.0 | 0.00 | 0.00 | 0.00 | 68 | 1008.5 |
| 20260508233134 | 77 | 212 | 3.0 | 6.0 | 0.00 | 0.00 | 0.00 | 68 | 1008.5 |
| 20260508232631 | 77 | 229 | 2.0 | 6.0 | 0.00 | 0.00 | 0.00 | 69 | 1008.7 |
| 20260508232128 | 76 | 242 | 2.0 | 5.0 | 0.00 | 0.00 | 0.00 | 70 | 1008.6 |
| 20260508231625 | 77 | 194 | 0.0 | 6.0 | 0.00 | 0.00 | 0.00 | 70 | 1008.6 |
| 20260508231122 | 77 | 209 | 3.0 | 7.0 | 0.00 | 0.00 | 0.00 | 69 | 1008.6 |
| 20260508230618 | 77 | 268 | 2.0 | 6.0 | 0.00 | 0.00 | 0.00 | 69 | 1008.8 |
| 20260508230115 | 78 | 223 | 1.0 | 5.0 | 0.00 | 0.00 | 0.00 | 69 | 1008.6 |
| 20260508225613 | 77 | 162 | 4.0 | 8.0 | 0.00 | 0.00 | 0.00 | 69 | 1008.6 |
| 20260508225109 | 77 | 211 | 2.0 | 6.0 | 0.00 | 0.00 | 0.00 | 69 | 1008.5 |
| 20260508224607 | 78 | 330 | 0.0 | 5.0 | 0.00 | 0.00 | 0.00 | 69 | 1008.8 |
| 20260508224104 | 78 | 257 | 2.0 | 5.0 | 0.00 | 0.00 | 0.00 | 68 | 1008.6 |
| 20260508223602 | 79 | 240 | 2.0 | 5.0 | 0.00 | 0.00 | 0.00 | 68 | 1008.7 |
| 20260508223058 | 80 | 208 | 5.0 | 9.0 | 0.00 | 0.00 | 0.00 | 66 | 1008.5 |
| 20260508222556 | 80 | 165 | 3.0 | 12.0 | 0.00 | 0.00 | 0.00 | 65 | 1008.6 |
| 20260508222053 | 81 | 209 | 4.0 | 6.0 | 0.00 | 0.00 | 0.00 | 64 | 1008.5 |
| 20260508221549 | 81 | 228 | 4.0 | 11.0 | 0.00 | 0.00 | 0.00 | 65 | 1008.3 |
| 20260508221045 | 82 | 226 | 3.0 | 8.0 | 0.00 | 0.00 | 0.00 | 63 | 1008.2 |
| 20260508220542 | 82 | 189 | 4.0 | 8.0 | 0.00 | 0.00 | 0.00 | 62 | 1008.2 |
| 20260508220038 | 83 | 200 | 4.0 | 8.0 | 0.00 | 0.00 | 0.00 | 61 | 1008.1 |
| 20260508215535 | 83 | 199 | 4.0 | 9.0 | 0.00 | 0.00 | 0.00 | 61 | 1008.3 |
| 20260508215032 | 82 | 203 | 3.0 | 10.0 | 0.00 | 0.00 | 0.00 | 61 | 1008.3 |
| 20260508214530 | 83 | 213 | 2.0 | 5.0 | 0.00 | 0.00 | 0.00 | 60 | 1008.2 |
| 20260508214025 | 82 | 227 | 3.0 | 4.0 | 0.00 | 0.00 | 0.00 | 62 | 1008.1 |
| 20260508213523 | 81 | 229 | 2.0 | 8.0 | 0.00 | 0.00 | 0.00 | 64 | 1008.4 |
| 20260508213019 | 80 | 309 | 3.0 | 6.0 | 0.00 | 0.00 | 0.00 | 63 | 1008.6 |
| 20260508212515 | 81 | 251 | 3.0 | 4.0 | 0.00 | 0.00 | 0.00 | 64 | 1008.3 |
| 20260508212012 | 80 | 310 | 3.0 | 8.0 | 0.00 | 0.00 | 0.00 | 63 | 1008.9 |
| 20260508211508 | 80 | 161 | 0.0 | 6.0 | 0.00 | 0.00 | 0.00 | 65 | 1009.0 |
| 20260508211004 | 77 | 218 | 2.0 | 6.0 | 0.00 | 0.00 | 0.00 | 67 | 1009.1 |
| 20260508210501 | 76 | 103 | 3.0 | 9.0 | 0.00 | 0.00 | 0.00 | 69 | 1009.6 |
| 20260508205957 | 76 | 240 | 0.0 | 6.0 | 0.00 | 0.00 | 0.00 | 68 | 1009.7 |
| 20260508205455 | 76 | 236 | 2.0 | 4.0 | 0.00 | 0.00 | 0.00 | 69 | 1009.8 |
| 20260508204951 | 76 | 202 | 3.0 | 4.0 | 0.00 | 0.00 | 0.00 | 68 | 1010.2 |
| 20260508204448 | 77 | 211 | 0.0 | 5.0 | 0.00 | 0.00 | 0.00 | 67 | 1010.2 |
| 20260508203943 | 77 | 204 | 3.0 | 7.0 | 0.00 | 0.00 | 0.00 | 66 | 1010.5 |
| 20260508203440 | 77 | 229 | 2.0 | 6.0 | 0.00 | 0.00 | 0.00 | 67 | 1010.2 |
| 20260508202935 | 77 | 212 | 2.0 | 5.0 | 0.00 | 0.00 | 0.00 | 66 | 1010.5 |
| 20260508202433 | 78 | 240 | 0.0 | 6.0 | 0.00 | 0.00 | 0.00 | 65 | 1010.5 |
| 20260508201930 | 78 | 237 | 2.0 | 6.0 | 0.00 | 0.00 | 0.00 | 65 | 1010.2 |
| 20260508201427 | 79 | 232 | 2.0 | 4.0 | 0.00 | 0.00 | 0.00 | 63 | 1010.1 |
| 20260508200923 | 79 | 185 | 3.0 | 5.0 | 0.00 | 0.00 | 0.00 | 62 | 1010.4 |
| 20260508200420 | 80 | 193 | 3.0 | 8.0 | 0.00 | 0.00 | 0.00 | 62 | 1010.4 |
| 20260508195915 | 81 | 250 | 2.0 | 5.0 | 0.00 | 0.00 | 0.00 | 63 | 1010.3 |
| 20260508195413 | 80 | 211 | 3.0 | 7.0 | 0.00 | 0.00 | 0.00 | 62 | 1010.4 |
| 20260508194909 | 80 | 159 | 0.0 | 7.0 | 0.00 | 0.00 | 0.00 | 62 | 1010.5 |
| 20260508194406 | 80 | 214 | 1.0 | 7.0 | 0.00 | 0.00 | 0.00 | 63 | 1010.6 |
| 20260508193903 | 80 | 355 | 2.0 | 4.0 | 0.00 | 0.00 | 0.00 | 63 | 1010.4 |
| 20260508193400 | 80 | 119 | 2.0 | 7.0 | 0.00 | 0.00 | 0.00 | 62 | 1010.7 |
| 20260508192856 | 80 | 244 | 2.0 | 6.0 | 0.00 | 0.00 | 0.00 | 63 | 1010.6 |
| 20260508192353 | 80 | 177 | 4.0 | 7.0 | 0.00 | 0.00 | 0.00 | 62 | 1010.8 |
| 20260508191850 | 80 | 258 | 3.0 | 9.0 | 0.00 | 0.00 | 0.00 | 62 | 1010.7 |
| 20260508191348 | 79 | 314 | 1.0 | 5.0 | 0.00 | 0.00 | 0.00 | 63 | 1010.9 |
| 20260508190844 | 79 | 121 | 1.0 | 7.0 | 0.00 | 0.00 | 0.00 | 62 | 1010.9 |
| 20260508190341 | 80 | 213 | 3.0 | 7.0 | 0.00 | 0.00 | 0.00 | 60 | 1011.0 |
| 20260508185837 | 80 | 260 | 2.0 | 8.0 | 0.00 | 0.00 | 0.00 | 62 | 1010.7 |
| 20260508185335 | 80 | 204 | 1.0 | 7.0 | 0.00 | 0.00 | 0.00 | 61 | 1011.1 |
| 20260508184832 | 79 | 47 | 3.0 | 8.0 | 0.00 | 0.00 | 0.00 | 60 | 1010.9 |
| 20260508184329 | 79 | 178 | 3.0 | 10.0 | 0.00 | 0.00 | 0.00 | 61 | 1011.0 |
| 20260508183826 | 79 | 210 | 3.0 | 5.0 | 0.00 | 0.00 | 0.00 | 60 | 1011.1 |
| 20260508183323 | 79 | 146 | 0.0 | 8.0 | 0.00 | 0.00 | 0.00 | 59 | 1011.5 |
| 20260508182818 | 79 | 265 | 4.0 | 5.0 | 0.00 | 0.00 | 0.00 | 61 | 1011.3 |
| 20260508182315 | 79 | 225 | 2.0 | 5.0 | 0.00 | 0.00 | 0.00 | 61 | 1011.2 |
| 20260508181811 | 78 | 148 | 3.0 | 4.0 | 0.00 | 0.00 | 0.00 | 61 | 1011.3 |
| 20260508181308 | 78 | 117 | 1.0 | 5.0 | 0.00 | 0.00 | 0.00 | 61 | 1011.6 |
| 20260508180805 | 78 | 248 | 2.0 | 5.0 | 0.00 | 0.00 | 0.00 | 61 | 1011.6 |
| 20260508180302 | 78 | 240 | 3.0 | 11.0 | 0.00 | 0.00 | 0.00 | 62 | 1011.7 |
| 20260508175758 | 78 | 247 | 2.0 | 7.0 | 0.00 | 0.00 | 0.00 | 62 | 1011.7 |
| 20260508175255 | 78 | 234 | 0.0 | 8.0 | 0.00 | 0.00 | 0.00 | 62 | 1011.9 |
| 20260508174753 | 78 | 191 | 2.0 | 4.0 | 0.00 | 0.00 | 0.00 | 60 | 1011.9 |
| 20260508174250 | 78 | 234 | 3.0 | 5.0 | 0.00 | 0.00 | 0.00 | 65 | 1012.0 |
| 20260508173746 | 78 | 321 | 2.0 | 5.0 | 0.00 | 0.00 | 0.00 | 64 | 1012.0 |
| 20260508173242 | 77 | 1 | 1.0 | 6.0 | 0.00 | 0.00 | 0.00 | 62 | 1011.9 |
| 20260508172739 | 77 | 45 | 3.0 | 7.0 | 0.00 | 0.00 | 0.00 | 64 | 1012.3 |
| 20260508172236 | 76 | 121 | 1.0 | 7.0 | 0.00 | 0.00 | 0.00 | 64 | 1012.3 |
| 20260508171733 | 75 | 328 | 3.0 | 4.0 | 0.00 | 0.00 | 0.00 | 64 | 1012.7 |
| 20260508171229 | 75 | 57 | 0.0 | 4.0 | 0.00 | 0.00 | 0.00 | 64 | 1012.9 |
| 20260508170726 | 74 | 276 | 1.0 | 3.0 | 0.00 | 0.00 | 0.00 | 67 | 1012.7 |
| 20260508170224 | 73 | 293 | 0.0 | 5.0 | 0.00 | 0.00 | 0.00 | 67 | 1012.8 |
| 20260508165720 | 74 | 180 | 5.0 | 6.0 | 0.00 | 0.00 | 0.00 | 65 | 1012.9 |
| 20260508165218 | 73 | 353 | 1.0 | 4.0 | 0.00 | 0.00 | 0.00 | 66 | 1013.2 |
| 20260508164714 | 73 | 252 | 2.0 | 7.0 | 0.00 | 0.00 | 0.00 | 69 | 1013.2 |
| 20260508164211 | 74 | 162 | 3.0 | 5.0 | 0.00 | 0.00 | 0.00 | 66 | 1013.5 |
| 20260508163709 | 74 | 252 | 1.0 | 4.0 | 0.00 | 0.00 | 0.00 | 65 | 1013.3 |
| 20260508163206 | 73 | 326 | 3.0 | 7.0 | 0.00 | 0.00 | 0.00 | 66 | 1013.6 |
| 20260508162701 | 72 | 209 | 1.0 | 4.0 | 0.00 | 0.00 | 0.00 | 68 | 1013.7 |
| 20260508162159 | 72 | 204 | 2.0 | 4.0 | 0.00 | 0.00 | 0.00 | 68 | 1013.5 |
| 20260508161655 | 73 | 255 | 2.0 | 5.0 | 0.00 | 0.00 | 0.00 | 67 | 1013.8 |
| 20260508161153 | 72 | 210 | 3.0 | 7.0 | 0.00 | 0.00 | 0.00 | 67 | 1013.7 |
| 20260508160651 | 72 | 121 | 3.0 | 8.0 | 0.00 | 0.00 | 0.00 | 67 | 1013.8 |
| 20260508160149 | 71 | 212 | 3.0 | 6.0 | 0.00 | 0.00 | 0.00 | 67 | 1013.7 |
| 20260508155645 | 72 | 222 | 2.0 | 5.0 | 0.00 | 0.00 | 0.00 | 67 | 1014.0 |
| 20260508155142 | 73 | 67 | 1.0 | 5.0 | 0.00 | 0.00 | 0.00 | 65 | 1014.1 |
| 20260508154639 | 73 | 238 | 1.0 | 5.0 | 0.00 | 0.00 | 0.00 | 65 | 1013.9 |
| 20260508154136 | 72 | 170 | 0.0 | 8.0 | 0.00 | 0.00 | 0.00 | 67 | 1013.9 |
| 20260508153633 | 72 | 243 | 1.0 | 9.0 | 0.00 | 0.00 | 0.00 | 67 | 1014.1 |
| 20260508153130 | 72 | 202 | 1.0 | 5.0 | 0.00 | 0.00 | 0.00 | 67 | 1014.0 |
| 20260508152626 | 70 | 189 | 3.0 | 5.0 | 0.00 | 0.00 | 0.00 | 69 | 1014.2 |
| 20260508152121 | 70 | 202 | 0.0 | 4.0 | 0.00 | 0.00 | 0.00 | 69 | 1014.2 |
| 20260508151619 | 70 | 219 | 2.0 | 7.0 | 0.00 | 0.00 | 0.00 | 69 | 1014.2 |
| 20260508151115 | 70 | 217 | 1.0 | 5.0 | 0.00 | 0.00 | 0.00 | 69 | 1014.3 |
| 20260508150613 | 71 | 226 | 2.0 | 5.0 | 0.00 | 0.00 | 0.00 | 69 | 1014.1 |
| 20260508150109 | 71 | 230 | 2.0 | 4.0 | 0.00 | 0.00 | 0.00 | 70 | 1014.2 |
| 20260508145605 | 70 | 239 | 1.0 | 6.0 | 0.00 | 0.00 | 0.00 | 73 | 1014.0 |
| 20260508145102 | 68 | 230 | 0.0 | 5.0 | 0.02 | 0.00 | 0.00 | 75 | 1014.1 |
| 20260508144600 | 68 | 205 | 3.0 | 5.0 | 0.02 | 0.00 | 0.00 | 76 | 1014.1 |
| 20260508144056 | 69 | 147 | 3.0 | 8.0 | 0.00 | 0.00 | 0.00 | 71 | 1013.8 |
| 20260508143554 | 71 | 228 | 3.0 | 6.0 | 0.00 | 0.00 | 0.00 | 68 | 1014.4 |
| 20260508143051 | 71 | 185 | 2.0 | 7.0 | 0.00 | 0.00 | 0.00 | 67 | 1014.2 |
| 20260508142547 | 72 | 243 | 3.0 | 5.0 | 0.00 | 0.00 | 0.00 | 67 | 1014.4 |
| 20260508142044 | 70 | 18 | 2.0 | 4.0 | 0.00 | 0.00 | 0.00 | 70 | 1014.2 |
| 20260508141540 | 68 | 142 | 4.0 | 5.0 | 0.00 | 0.00 | 0.00 | 71 | 1014.4 |
| 20260508141038 | 67 | 195 | 1.0 | 4.0 | 0.00 | 0.00 | 0.00 | 74 | 1014.2 |
| 20260508140535 | 67 | 303 | 2.0 | 5.0 | 0.00 | 0.00 | 0.00 | 75 | 1014.2 |
| 20260508140032 | 67 | 330 | 2.0 | 5.0 | 0.00 | 0.00 | 0.00 | 75 | 1014.3 |
| 20260508135527 | 67 | 225 | 1.0 | 5.0 | 0.00 | 0.00 | 0.00 | 76 | 1014.6 |
| 20260508135024 | 67 | 180 | 3.0 | 5.0 | 0.00 | 0.00 | 0.00 | 76 | 1014.5 |
| 20260508134521 | 67 | 98 | 0.0 | 2.0 | 0.00 | 0.00 | 0.00 | 76 | 1014.2 |
| 20260508134018 | 66 | 221 | 2.0 | 4.0 | 0.00 | 0.00 | 0.00 | 77 | 1014.3 |
| 20260508133514 | 65 | 274 | 1.0 | 5.0 | 0.00 | 0.00 | 0.00 | 80 | 1014.5 |
| 20260508133012 | 65 | 184 | 2.0 | 5.0 | 0.00 | 0.00 | 0.00 | 82 | 1014.7 |
| 20260508132510 | 64 | 299 | 0.0 | 3.0 | 0.00 | 0.00 | 0.00 | 85 | 1014.6 |
| 20260508132006 | 64 | 321 | 0.0 | 3.0 | 0.00 | 0.00 | 0.00 | 85 | 1014.3 |
| 20260508131501 | 64 | 341 | 0.0 | 3.0 | 0.00 | 0.00 | 0.00 | 86 | 1014.5 |
| 20260508130958 | 63 | 50 | 0.0 | 2.0 | 0.00 | 0.00 | 0.00 | 88 | 1014.5 |
| 20260508130455 | 63 | 124 | 0.0 | 1.0 | 0.00 | 0.00 | 0.00 | 88 | 1014.6 |
| 20260508125950 | 63 | 233 | 0.0 | 2.0 | 0.00 | 0.00 | 0.00 | 88 | 1015.0 |
| 20260508125447 | 62 | 294 | 1.0 | 3.0 | 0.00 | 0.00 | 0.00 | 88 | 1014.4 |
| 20260508124945 | 62 | 303 | 0.0 | 3.0 | 0.00 | 0.00 | 0.00 | 88 | 1014.3 |
| 20260508124443 | 62 | 269 | 0.0 | 2.0 | 0.00 | 0.00 | 0.00 | 88 | 1014.7 |
| 20260508123940 | 62 | 259 | 2.0 | 2.0 | 0.00 | 0.00 | 0.00 | 88 | 1014.9 |
| 20260508123439 | 62 | 230 | 0.0 | 2.0 | 0.00 | 0.00 | 0.00 | 88 | 1014.5 |
| 20260508122934 | 62 | 242 | 0.0 | 1.0 | 0.00 | 0.00 | 0.00 | 88 | 1014.6 |
| 20260508122432 | 62 | 124 | 0.0 | 2.0 | 0.00 | 0.00 | 0.00 | 88 | 1014.8 |
| 20260508121929 | 62 | 224 | 0.0 | 2.0 | 0.00 | 0.00 | 0.00 | 89 | 1014.7 |
| 20260508121427 | 62 | 137 | 0.0 | 3.0 | 0.00 | 0.00 | 0.00 | 89 | 1014.6 |
| 20260508120924 | 62 | 154 | 0.0 | 3.0 | 0.00 | 0.00 | 0.00 | 89 | 1014.7 |
| 20260508120422 | 62 | 233 | 0.0 | 2.0 | 0.00 | 0.00 | 0.00 | 89 | 1014.9 |
| 20260508115919 | 62 | 313 | 0.0 | 2.0 | 0.00 | 0.00 | 0.00 | 88 | 1014.8 |
| 20260508115418 | 62 | 309 | 0.0 | 5.0 | 0.00 | 0.00 | 0.00 | 88 | 1014.7 |
| 20260508114913 | 62 | 177 | 3.0 | 4.0 | 0.00 | 0.00 | 0.00 | 87 | 1014.6 |
| 20260508114410 | 62 | 223 | 0.0 | 3.0 | 0.00 | 0.00 | 0.00 | 87 | 1014.8 |
| 20260508113907 | 62 | 236 | 2.0 | 2.0 | 0.00 | 0.00 | 0.00 | 88 | 1015.2 |
| 20260508113405 | 62 | 272 | 0.0 | 2.0 | 0.00 | 0.00 | 0.00 | 87 | 1014.3 |
| 20260508112902 | 62 | 286 | 1.0 | 3.0 | 0.00 | 0.00 | 0.00 | 87 | 1014.5 |
| 20260508112358 | 62 | 324 | 0.0 | 3.0 | 0.00 | 0.00 | 0.00 | 87 | 1014.4 |
| 20260508111855 | 62 | 320 | 0.0 | 2.0 | 0.00 | 0.00 | 0.00 | 87 | 1014.5 |
| 20260508111352 | 62 | 67 | 0.0 | 2.0 | 0.00 | 0.00 | 0.00 | 87 | 1014.5 |
| 20260508110849 | 62 | 98 | 0.0 | 1.0 | 0.00 | 0.00 | 0.00 | 87 | 1015.1 |
| 20260508110347 | 62 | 217 | 0.0 | 2.0 | 0.00 | 0.00 | 0.00 | 87 | 1015.3 |
| 20260508105846 | 62 | 229 | 1.0 | 2.0 | 0.00 | 0.00 | 0.00 | 87 | 1014.8 |
| 20260508105343 | 62 | 199 | 0.0 | 3.0 | 0.00 | 0.00 | 0.00 | 87 | 1014.6 |
| 20260508104840 | 62 | 72 | 2.0 | 3.0 | 0.00 | 0.00 | 0.00 | 88 | 1015.3 |
| 20260508104337 | 62 | 213 | 3.0 | 3.0 | 0.00 | 0.00 | 0.00 | 90 | 1015.2 |
| 20260508103835 | 62 | 288 | 0.0 | 2.0 | 0.00 | 0.00 | 0.00 | 90 | 1014.0 |
| 20260508103331 | 62 | 218 | 0.0 | 2.0 | 0.00 | 0.00 | 0.00 | 90 | 1014.1 |
| 20260508102829 | 62 | 265 | 1.0 | 2.0 | 0.00 | 0.00 | 0.00 | 90 | 1014.3 |
| 20260508102327 | 62 | 291 | 0.0 | 2.0 | 0.00 | 0.00 | 0.00 | 89 | 1013.8 |
| 20260508101824 | 62 | 244 | 0.0 | 2.0 | 0.00 | 0.00 | 0.00 | 89 | 1013.8 |
| 20260508101321 | 62 | 191 | 2.0 | 3.0 | 0.00 | 0.00 | 0.00 | 89 | 1013.6 |
| 20260508100819 | 62 | 201 | 1.0 | 3.0 | 0.00 | 0.00 | 0.00 | 88 | 1013.6 |
| 20260508100317 | 62 | 250 | 0.0 | 2.0 | 0.00 | 0.00 | 0.00 | 88 | 1013.6 |
| 20260508095812 | 62 | 173 | 0.0 | 2.0 | 0.00 | 0.00 | 0.00 | 88 | 1013.5 |
| 20260508095311 | 62 | 247 | 1.0 | 3.0 | 0.00 | 0.00 | 0.00 | 88 | 1013.7 |
| 20260508094807 | 62 | 297 | 0.0 | 2.0 | 0.00 | 0.00 | 0.00 | 87 | 1013.7 |
| 20260508094304 | 62 | 4 | 0.0 | 2.0 | 0.00 | 0.00 | 0.00 | 87 | 1013.8 |
| 20260508093801 | 62 | 239 | 1.0 | 2.0 | 0.00 | 0.00 | 0.00 | 88 | 1014.3 |
| 20260508093259 | 62 | 242 | 0.0 | 2.0 | 0.00 | 0.00 | 0.00 | 89 | 1014.0 |
| 20260508092755 | 61 | 326 | 0.0 | 1.0 | 0.00 | 0.00 | 0.00 | 89 | 1013.9 |
| 20260508092254 | 61 | 284 | 0.0 | 1.0 | 0.00 | 0.00 | 0.00 | 89 | 1013.5 |
| 20260508091751 | 61 | 77 | 0.0 | 1.0 | 0.00 | 0.00 | 0.00 | 89 | 1013.9 |
| 20260508091248 | 61 | 269 | 0.0 | 0.0 | 0.00 | 0.00 | 0.00 | 88 | 1014.0 |
| 20260508090746 | 62 | 240 | 0.0 | 1.0 | 0.00 | 0.00 | 0.00 | 88 | 1014.1 |
| 20260508090243 | 62 | 224 | 0.0 | 3.0 | 0.00 | 0.00 | 0.00 | 88 | 1014.5 |
| 20260508085739 | 62 | 279 | 1.0 | 2.0 | 0.00 | 0.00 | 0.00 | 87 | 1014.4 |
| 20260508085236 | 62 | 261 | 1.0 | 2.0 | 0.00 | 0.00 | 0.00 | 87 | 1014.0 |
| 20260508084732 | 62 | 257 | 0.0 | 3.0 | 0.00 | 0.00 | 0.00 | 88 | 1013.6 |
| 20260508084230 | 62 | 299 | 1.0 | 2.0 | 0.00 | 0.00 | 0.00 | 88 | 1013.9 |
| 20260508083727 | 62 | 347 | 1.0 | 3.0 | 0.00 | 0.00 | 0.00 | 87 | 1014.1 |
| 20260508083225 | 62 | 293 | 0.0 | 2.0 | 0.00 | 0.00 | 0.00 | 86 | 1014.2 |
| 20260508082719 | 62 | 230 | 0.0 | 2.0 | 0.00 | 0.00 | 0.00 | 86 | 1014.4 |
| 20260508082218 | 62 | 129 | 0.0 | 2.0 | 0.00 | 0.00 | 0.00 | 86 | 1014.6 |
| 20260508081715 | 62 | 143 | 0.0 | 3.0 | 0.00 | 0.00 | 0.00 | 86 | 1014.6 |
| 20260508081211 | 62 | 333 | 0.0 | 3.0 | 0.00 | 0.00 | 0.00 | 86 | 1014.8 |
| 20260508080708 | 62 | 0 | 0.0 | 1.0 | 0.00 | 0.00 | 0.00 | 86 | 1015.2 |
| 20260508080206 | 61 | 257 | 0.0 | 2.0 | 0.00 | 0.00 | 0.00 | 87 | 1015.7 |
| 20260508075702 | 61 | 234 | 0.0 | 2.0 | 0.00 | 0.00 | 0.00 | 87 | 1015.8 |
| 20260508075200 | 62 | 242 | 0.0 | 2.0 | 0.00 | 0.00 | 0.00 | 86 | 1015.3 |
| 20260508074657 | 62 | 241 | 1.0 | 2.0 | 0.00 | 0.00 | 0.00 | 86 | 1015.3 |
| 20260508074154 | 62 | 260 | 1.0 | 1.0 | 0.00 | 0.00 | 0.00 | 86 | 1014.9 |
| 20260508073651 | 62 | 230 | 0.0 | 0.0 | 0.00 | 0.00 | 0.00 | 86 | 1014.9 |
| 20260508073149 | 62 | 230 | 0.0 | 1.0 | 0.00 | 0.00 | 0.00 | 86 | 1014.8 |
| 20260508072644 | 62 | 343 | 0.0 | 1.0 | 0.00 | 0.00 | 0.00 | 86 | 1015.0 |
| 20260508072142 | 61 | 296 | 0.0 | 1.0 | 0.00 | 0.00 | 0.00 | 86 | 1014.9 |
| 20260508071639 | 61 | 154 | 0.0 | 1.0 | 0.00 | 0.00 | 0.00 | 86 | 1015.0 |
| 20260508071138 | 61 | 230 | 0.0 | 1.0 | 0.00 | 0.00 | 0.00 | 87 | 1015.0 |
| 20260508070635 | 61 | 289 | 0.0 | 2.0 | 0.00 | 0.00 | 0.00 | 86 | 1015.1 |
| 20260508070133 | 61 | 76 | 0.0 | 0.0 | 0.00 | 0.00 | 0.00 | 86 | 1014.9 |
| 20260508065630 | 61 | 224 | 0.0 | 1.0 | 0.00 | 0.00 | 0.00 | 86 | 1015.2 |
| 20260508065128 | 61 | 284 | 0.0 | 1.0 | 0.00 | 0.00 | 0.00 | 86 | 1015.3 |
| 20260508064625 | 61 | 236 | 0.0 | 2.0 | 0.00 | 0.00 | 0.00 | 85 | 1015.7 |
| 20260508064123 | 62 | 239 | 0.0 | 1.0 | 0.00 | 0.00 | 0.00 | 85 | 1015.6 |
| 20260508063620 | 62 | 242 | 0.0 | 1.0 | 0.00 | 0.00 | 0.00 | 84 | 1015.7 |
| 20260508062616 | 62 | 212 | 0.0 | 1.0 | 0.00 | 0.00 | 0.00 | 84 | 1015.5 |
| 20260508062112 | 62 | 202 | 0.0 | 1.0 | 0.00 | 0.00 | 0.00 | 83 | 1015.7 |
| 20260508061609 | 62 | 213 | 0.0 | 1.0 | 0.00 | 0.00 | 0.00 | 83 | 1015.6 |
| 20260508061107 | 62 | 326 | 0.0 | 1.0 | 0.00 | 0.00 | 0.00 | 83 | 1015.5 |
| 20260508060603 | 62 | 38 | 0.0 | 1.0 | 0.00 | 0.00 | 0.00 | 83 | 1015.3 |
| 20260508060101 | 62 | 217 | 0.0 | 1.0 | 0.00 | 0.00 | 0.00 | 83 | 1015.8 |
| 20260508055556 | 62 | 242 | 0.0 | 1.0 | 0.00 | 0.00 | 0.00 | 83 | 1015.7 |
| 20260508055053 | 62 | 329 | 0.0 | 1.0 | 0.00 | 0.00 | 0.00 | 82 | 1015.7 |
| 20260508054550 | 62 | 242 | 0.0 | 0.0 | 0.00 | 0.00 | 0.00 | 83 | 1015.6 |
| 20260508054047 | 62 | 312 | 0.0 | 1.0 | 0.00 | 0.00 | 0.00 | 83 | 1015.7 |
| 20260508053543 | 61 | 230 | 0.0 | 0.0 | 0.00 | 0.00 | 0.00 | 83 | 1015.9 |